GFSNIL_850_spd_006.txt.gz
Wind_Speed
4 2 2 5 8 11 15 19 22 22 21 19 19 21 23 25 26 27 28 30 31 30
4 3 4 7 10 13 17 19 20 20 19 19 21 23 25 28 30 31 31 31 31 33
4 5 7 8 12 15 18 19 18 18 19 21 23 26 28 31 32 32 32 30 34 36
6 7 8 10 14 16 18 19 18 19 21 23 26 29 31 33 33 33 31 33 38 36
7 7 9 12 15 18 18 18 18 21 23 26 29 32 33 34 34 31 32 39 38 37
8 8 11 14 16 17 17 18 20 23 26 29 32 33 34 35 31 32 37 41 40 37
7 9 12 15 17 18 18 20 22 25 28 31 33 33 35 29 34 40 41 42 37 34
8 10 13 16 17 18 18 21 24 28 31 33 33 34 28 31 34 37 42 41 30 28
8 11 15 17 17 18 20 24 28 31 33 33 33 32 29 28 32 36 39 34 32 32
9 12 16 17 17 19 23 27 30 32 33 33 34 33 27 28 31 34 35 32 33 35
10 13 14 15 18 21 26 29 31 32 33 34 35 32 28 28 30 34 33 33 32 33
11 12 14 16 20 24 28 30 32 33 34 35 34 32 28 27 30 34 37 35 32 33
11 13 15 19 23 27 29 31 32 34 35 33 34 31 26 26 31 35 35 36 34 38
11 14 18 21 24 28 30 32 34 36 35 34 29 29 26 28 29 32 35 38 43 40

GFSNIL_850_spd_012.txt.gz
Wind_Speed
18 15 13 10 7 5 6 9 12 14 15 15 15 16 18 20 22 24 26 27 28 28
18 15 13 10 6 5 7 10 13 14 15 16 16 18 20 23 25 26 27 29 28 28
17 15 12 8 6 6 8 11 14 15 16 16 17 19 22 25 26 27 28 28 29 31
16 13 10 7 6 7 10 13 15 15 16 16 19 22 24 25 27 28 28 29 32 34
15 12 9 7 6 8 12 14 15 15 16 18 21 24 26 27 27 29 30 31 32 34
13 10 8 6 7 10 12 13 13 15 18 21 24 26 27 28 29 29 29 31 32 35
11 9 7 6 8 10 12 12 13 16 20 23 25 26 29 29 30 30 30 31 33 34
11 9 7 7 8 10 11 12 15 19 21 24 26 28 30 29 29 30 31 32 32 32
10 8 7 7 9 9 11 13 17 21 24 25 27 28 28 26 28 31 31 32 31 34
9 7 7 8 10 10 12 16 20 22 24 26 28 28 28 27 28 30 31 33 32 31
7 6 7 9 9 10 14 19 21 23 25 27 28 28 29 29 28 30 29 28 29 31
6 6 8 8 10 13 17 20 22 25 26 28 28 29 29 26 29 30 31 29 30 31
5 7 7 9 11 16 20 22 24 25 26 26 28 28 27 24 27 32 34 35 36 36
6 6 8 10 14 19 22 24 26 27 26 27 27 27 25 22 26 30 33 36 38 40

GFSNIL_850_spd_015.txt.gz
Wind_Speed
24 22 19 15 12 10 8 8 10 12 14 15 15 15 17 18 20 21 23 24 25 24
24 21 17 14 12 10 8 9 10 12 14 15 16 17 18 20 22 23 24 25 25 26
22 19 16 14 11 9 9 10 11 13 15 15 17 18 21 23 23 25 25 26 28 28
22 19 16 13 10 9 9 10 12 14 15 17 18 21 23 24 25 26 27 27 27 29
19 17 14 11 9 9 9 11 13 15 16 18 20 22 24 25 26 28 28 28 29 30
18 15 12 10 9 8 10 12 14 15 17 19 22 24 25 27 27 27 28 29 30 30
15 13 11 10 9 9 11 13 14 16 18 21 23 24 26 27 27 28 28 29 29 29
14 13 11 9 9 10 12 14 15 17 19 22 25 26 27 27 27 29 30 30 30 30
14 12 10 9 9 11 13 13 15 19 22 24 26 27 29 25 28 29 29 30 29 28
13 11 9 9 10 12 12 14 17 20 23 26 27 28 27 26 26 28 28 29 29 27
12 10 8 10 11 11 13 16 19 22 25 27 27 27 27 24 27 28 28 29 27 30
10 9 9 9 10 12 14 18 21 24 26 27 27 27 26 24 27 28 31 31 31 30
9 8 8 9 11 13 17 20 23 24 25 25 26 26 25 22 25 29 32 34 35 32
8 8 8 9 12 16 19 21 23 24 24 24 25 26 24 21 24 27 32 36 38 39

GFSNIL_850_spd_018.txt.gz
Wind_Speed
22 21 22 21 18 15 11 9 8 9 12 13 15 16 16 17 18 20 21 22 22 23
24 25 23 21 17 13 10 8 9 11 13 14 16 17 18 19 20 22 23 23 24 26
26 24 21 18 15 11 10 9 10 11 14 16 17 17 19 20 22 23 24 25 27 27
25 22 19 16 13 11 10 10 11 12 15 16 17 18 20 22 23 25 27 27 28 28
23 20 17 14 12 11 10 10 11 14 15 17 17 20 22 24 25 27 28 28 29 30
20 17 15 14 12 11 10 11 13 15 16 17 19 22 24 26 27 27 28 29 30 31
18 16 14 12 11 10 10 12 13 15 17 19 21 23 25 27 27 28 29 29 30 29
16 14 13 12 10 10 11 12 14 16 18 20 23 25 27 27 28 29 29 29 27 26
15 14 12 11 10 10 11 12 15 16 19 22 25 26 27 28 26 28 29 29 27 26
14 12 11 10 10 10 11 13 15 18 22 24 26 27 28 26 26 27 27 27 28 28
12 12 11 10 9 9 11 14 17 20 23 25 26 27 27 26 26 26 25 26 28 31
12 11 10 8 8 10 12 15 18 22 25 26 26 27 28 26 25 25 27 28 30 31
11 9 7 7 9 11 14 17 21 23 24 24 26 27 26 22 23 27 28 29 35 33
9 6 6 8 9 12 16 20 21 22 23 25 26 27 24 22 22 26 29 33 35 38